Regional Weather Roundup
Issued by NWS

Home | Current Version | Previous Version | Graphics & Text | Print | Product List | Glossary On
Versions: 1 2 3 4 5 6 7 8 9 10 11 12 13 14 15 16 17 18 19 20 21 22 23 24 25 26 27 28 29 30 31 32 33 34 35 36 37 38 39 40 41 42 43 44 45 46 47 48 49 50
000
ASUS43 KLOT 231606
RWRIL

ILLINOIS REGIONAL WEATHER ROUNDUP
NATIONAL WEATHER SERVICE CHICAGO/ROMEOVILLE IL
1100 AM CDT THU OCT 23 2014

NOTE: "FAIR" INDICATES FEW OR NO CLOUDS BELOW 12,000 FEET WITH NO
SIGNIFICANT WEATHER AND/OR OBSTRUCTIONS TO VISIBILITY.

* THESE STATIONS ARE NOT UNDER NWS QUALITY CONTROL. THEY ALSO MAY NOT
  REPORT WEATHER SUCH AS PRECIPITATION OR FOG.

ILZ001-002-007-009-015-016-024-231700-
NORTHWEST ILLINOIS

CITY           SKY/WX    TMP DP  RH WIND       PRES   REMARKS
MOLINE         CLOUDY    56  44  64 SE9       30.11F
STERLING*      CLOUDY    55  43  62 S8        30.16F
SAVANNA*       CLOUDY    54  41  61 S14       30.12F
$$

ILZ003-004-008-010-011-017-018-231700-
NORTH CENTRAL ILLINOIS

CITY           SKY/WX    TMP DP  RH WIND       PRES   REMARKS
ROCKFORD       CLOUDY    53  41  63 S15       30.20F
FREEPORT*      CLOUDY    51  41  68 S9        30.16F
ROCHELLE*      CLOUDY    53  40  62 S13       30.19S
DE KALB*       MOSUNNY   53  42  66 S15       30.19F
PERU*          MOSUNNY   55  42  62 S14       30.20S
$$

ILZ005-006-012>014-019>023-231700-
NORTHEAST ILLINOIS

CITY           SKY/WX    TMP DP  RH WIND       PRES   REMARKS
CHICAGO-OHARE  PTSUNNY   53  41  63 S10       30.20F
CHICAGO-MIDWAY PTSUNNY   56  43  61 SW12      30.20F
AURORA         SUNNY     55  42  61 S9        30.20F
LANSING*       SUNNY     52  44  72 SW9       30.21F
JOLIET*        MOSUNNY   53  43  66 S7        30.21F
WAUKEGAN       MOSUNNY   53  42  66 SW9       30.18F
DUPAGE AIRPORT MOSUNNY   54  41  61 S12       30.20F
KANKAKEE*      MOSUNNY   53  44  72 S7        30.23S
WHEELING       SUNNY     54  42  64 SW7       30.21F
MORRIS*        SUNNY     53  44  71 S8        30.20F
ROMEOVILLE*    MOSUNNY   53  42  65 SW10      30.21S
NORTHERLY ISL    N/A     53  41  63 SW6         N/A
$$

LMZ740>746-231700-
SOUTHERN LAKE MICHIGAN

STATION/POSITION SKY/WX   TEMP    WIND        PRES    VSBY  WAVE
                          AIR SEA DIR/SP/G                  HT/PER
                          (F)     (DEG/KT/KT) (MB)    (MI)  (FT/S)
SOUTHERN BUOY              51 54  200/ 12/ 14 1022.9F         2/ 5
WAUKEGAN HARBOR            50     200/  8/ 10   N/A
HARRISON CRIB              48     180/ 13/ 14   N/A
BURNHAM HARBOR             53     200/ 11/ 13   N/A
CALUMET HARBOR             52     170/  7/ 10 1021.6F
MICHIGAN CITY              50     160/  8/ 11   N/A
$$

ILZ025>027-034>036-040-047-049-050-058-095>099-231700-
WEST-CENTRAL ILLINOIS

CITY           SKY/WX    TMP DP  RH WIND       PRES   REMARKS
QUINCY         CLOUDY    53  43  68 S9        30.15S
GALESBURG*     PTSUNNY   55  43  64 S12G20    30.16S
MACOMB*        CLOUDY    52  44  72 S9        30.19R
JACKSONVILLE*  CLOUDY    53  44  70 S9        30.20S
PITTSFIELD*    CLOUDY    55  45  69 S8        30.18F
$$

ILZ028>032-037-038-041>044-048-051>054-059>061-231700-
CENTRAL ILLINOIS

CITY           SKY/WX    TMP DP  RH WIND       PRES   REMARKS
PONTIAC        PTSUNNY   55  45  69 S9        30.22F
BLOOMINGTON    CLOUDY    52  45  77 S10       30.23R
DECATUR        CLOUDY    55  44  66 S7        30.23F
PEORIA         CLOUDY    53  42  66 S12       30.19F
LACON*         PTSUNNY   53  42  64 S9        30.18F
LINCOLN*       CLOUDY    54  43  68 S8        30.20F
SPRINGFIELD    CLOUDY    53  42  66 S9        30.22S
TAYLORVILLE    CLOUDY    52  45  76 S7        30.21F
$$

ILZ033-039-045-046-055>057-062-063-231700-
EAST-CENTRAL ILLINOIS

CITY           SKY/WX    TMP DP  RH WIND       PRES   REMARKS
CHAMPAIGN      PTSUNNY   54  44  69 S13       30.22F
DANVILLE*      SUNNY     53  43  70 S8        30.20F
RANTOUL*       PTSUNNY   56  43  61 SW9       30.22F
MATTOON        PTSUNNY   52  43  71 S10       30.23S
PARIS*         SUNNY     54  45  71 SW8       30.25S
$$

ILZ079-100>102-231700-
SOUTHWEST ILLINOIS

CITY           SKY/WX    TMP DP  RH WIND       PRES   REMARKS
ALTON          CLOUDY    57  45  62 S14       30.22F
BELLEVILLE     MOSUNNY   55  46  70 S8        30.21F
CAHOKIA*       MOSUNNY   58  44  60 S8        30.22S
SPARTA*        MOSUNNY   54  45  71 S8        30.24F
$$

ILZ064>066-069>071-074>076-080>082-084>086-088>090-092>094-231700-
SOUTH-CENTRAL ILLINOIS

CITY           SKY/WX    TMP DP  RH WIND       PRES   REMARKS
CARBONDALE     MOSUNNY   57  44  62 S6        30.24F
CAIRO*         MOSUNNY   58  45  63 CALM      30.24F
EFFINGHAM*     CLOUDY    54  41  62 S6        30.24F
MARION         PTSUNNY   57  46  67 S6        30.25F
MT. VERNON     MOSUNNY   55  45  67 S7        30.26R
CENTRALIA*     MOSUNNY   55  44  65 S8        30.24S
SALEM*         MOSUNNY   58  47  67 S7        30.24F
METROPOLIS*    SUNNY     56  45  67 SE6       30.23F
$$

ILZ067-068-072-073-078-083-087-091-231700-
SOUTHEAST ILLINOIS

CITY           SKY/WX    TMP DP  RH WIND       PRES   REMARKS
LAWRENCEVILLE  SUNNY     55  44  66 S7        30.26S
FLORA*         SUNNY     53  43  69 S6        30.26S
FAIRFIELD*     MOSUNNY   55  44  65 S7        30.24F
HARRISBURG*    MOSUNNY   55  45  68 SE5       30.26F
ROBINSON*      MOSUNNY   57  46  65 SW7       30.27S
CARMI*         SUNNY     57  46  67 S8        30.25F
$$

ABBREVIATIONS USED IN REMARKS
   TC - TEMPERATURE IN CELSIUS
  WCI - WIND CHILL INDEX
   HX - HEAT INDEX
  VSB - VISIBILITY
$$




USA.gov is the U.S. government's official web portal to all federal, state and local government web resources and services.